Location: Praha
(50.0830°N, 14.4670°E)
Time: 16:38:20
(UTC+01:00)

ISS - Pass Details

Date: 11 November 2018
Orbit: 401 x 408 km, 51.6° (Epoch: 20 November)

Event Time Altitude Azimuth Distance (km) Brightness Sun altitude
Exits shadow 05:08:34 56° 198° (SSW) 489 -3.6 -19.2°
Drops below altitude 10° 05:11:43 10° 126° (SE) 1,461 -0.1 -18.7°
Sets 05:13:49 0° 122° (ESE) 2,320 1.2 -18.4°
